Year,Month,Day,Hour,Minute,Value (Times are PST for temperature in C)
2022,05,13,00,00,3.70
2022,05,13,00,01,3.70
2022,05,13,00,02,3.70
2022,05,13,00,03,3.70
2022,05,13,00,04,3.70
2022,05,13,00,05,3.70
2022,05,13,00,06,3.70
2022,05,13,00,07,3.70
2022,05,13,00,08,3.70
2022,05,13,00,09,3.70
2022,05,13,00,10,3.70
2022,05,13,00,11,3.70
2022,05,13,00,12,3.60
2022,05,13,00,13,3.60
2022,05,13,00,14,3.60
2022,05,13,00,15,3.60
2022,05,13,00,16,3.60
2022,05,13,00,17,3.50
2022,05,13,00,18,3.50
2022,05,13,00,19,3.50
2022,05,13,00,20,3.50
2022,05,13,00,21,3.50
2022,05,13,00,22,3.50
2022,05,13,00,23,3.40
2022,05,13,00,24,3.40
2022,05,13,00,25,3.40
2022,05,13,00,26,3.40
2022,05,13,00,27,3.40
2022,05,13,00,28,3.40
2022,05,13,00,29,3.40
2022,05,13,00,30,3.30
2022,05,13,00,31,3.30
2022,05,13,00,32,3.30
2022,05,13,00,33,3.30
2022,05,13,00,34,3.30
2022,05,13,00,35,3.30
2022,05,13,00,36,3.30
2022,05,13,00,37,3.30
2022,05,13,00,38,3.30
2022,05,13,00,39,3.30
2022,05,13,00,40,3.30
2022,05,13,00,41,3.30
2022,05,13,00,42,3.30
2022,05,13,00,43,3.30
2022,05,13,00,44,3.30
2022,05,13,00,45,3.40
2022,05,13,00,46,3.30
2022,05,13,00,47,3.40
2022,05,13,00,48,3.30
2022,05,13,00,49,3.30
2022,05,13,00,50,3.20
2022,05,13,00,51,3.10
2022,05,13,00,52,3.10
2022,05,13,00,53,3.00
2022,05,13,00,54,3.00
2022,05,13,00,55,2.90
2022,05,13,00,56,2.90
2022,05,13,00,57,2.90
2022,05,13,00,58,2.90
2022,05,13,00,59,2.90
2022,05,13,01,00,2.90
2022,05,13,01,01,2.90
2022,05,13,01,02,2.90
2022,05,13,01,03,2.90
2022,05,13,01,04,2.90
2022,05,13,01,05,2.90
2022,05,13,01,06,2.90
2022,05,13,01,07,2.90
2022,05,13,01,08,2.90
2022,05,13,01,09,2.80
2022,05,13,01,10,2.80
2022,05,13,01,11,2.80
2022,05,13,01,12,2.70
2022,05,13,01,13,2.70
2022,05,13,01,14,2.70
2022,05,13,01,15,2.60
2022,05,13,01,16,2.60
2022,05,13,01,17,2.50
2022,05,13,01,18,2.40
2022,05,13,01,19,2.40
2022,05,13,01,20,2.40
2022,05,13,01,21,2.40
2022,05,13,01,22,2.40
2022,05,13,01,23,2.30
2022,05,13,01,24,2.30
2022,05,13,01,25,2.30
2022,05,13,01,26,2.30
2022,05,13,01,27,2.30
2022,05,13,01,28,2.30
2022,05,13,01,29,2.30
2022,05,13,01,30,2.30
2022,05,13,01,31,2.30
2022,05,13,01,32,2.30
2022,05,13,01,33,2.30
2022,05,13,01,34,2.30
2022,05,13,01,35,2.30
2022,05,13,01,36,2.30
2022,05,13,01,37,2.20
2022,05,13,01,38,2.20
2022,05,13,01,39,2.20
2022,05,13,01,40,2.10
2022,05,13,01,41,2.10
2022,05,13,01,42,2.10
2022,05,13,01,43,2.10
2022,05,13,01,44,2.00
2022,05,13,01,45,2.00
2022,05,13,01,46,2.00
2022,05,13,01,47,1.90
2022,05,13,01,48,1.90
2022,05,13,01,49,1.90
2022,05,13,01,50,1.80
2022,05,13,01,51,1.80
2022,05,13,01,52,1.80
2022,05,13,01,53,1.80
2022,05,13,01,54,1.80
2022,05,13,01,55,1.80
2022,05,13,01,56,1.80
2022,05,13,01,57,1.80
2022,05,13,01,58,1.70
2022,05,13,01,59,1.70
2022,05,13,02,00,1.70
2022,05,13,02,01,1.70
2022,05,13,02,02,1.60
2022,05,13,02,03,1.60
2022,05,13,02,04,1.60
2022,05,13,02,05,1.60
2022,05,13,02,06,1.60
2022,05,13,02,07,1.60
2022,05,13,02,08,1.60
2022,05,13,02,09,1.50
2022,05,13,02,10,1.50
2022,05,13,02,11,1.50
2022,05,13,02,12,1.50
2022,05,13,02,13,1.50
2022,05,13,02,14,1.50
2022,05,13,02,15,1.40
2022,05,13,02,16,1.40
2022,05,13,02,17,1.40
2022,05,13,02,18,1.40
2022,05,13,02,19,1.40
2022,05,13,02,20,1.40
2022,05,13,02,21,1.40
2022,05,13,02,22,1.40
2022,05,13,02,23,1.40
2022,05,13,02,24,1.50
2022,05,13,02,25,1.50
2022,05,13,02,26,1.50
2022,05,13,02,27,1.60
2022,05,13,02,28,1.60
2022,05,13,02,29,1.50
2022,05,13,02,30,1.40
2022,05,13,02,31,1.40
2022,05,13,02,32,1.30
2022,05,13,02,33,1.30
2022,05,13,02,34,1.30
2022,05,13,02,35,1.30
2022,05,13,02,36,1.30
2022,05,13,02,37,1.30
2022,05,13,02,38,1.40
2022,05,13,02,39,1.40
2022,05,13,02,40,1.40
2022,05,13,02,41,1.40
2022,05,13,02,42,1.30
2022,05,13,02,43,1.30
2022,05,13,02,44,1.20
2022,05,13,02,45,1.20
2022,05,13,02,46,1.10
2022,05,13,02,47,1.10
2022,05,13,02,48,1.10
2022,05,13,02,49,1.10
2022,05,13,02,50,1.10
2022,05,13,02,51,1.10
2022,05,13,02,52,1.20
2022,05,13,02,53,1.20
2022,05,13,02,54,1.20
2022,05,13,02,55,1.10
2022,05,13,02,56,1.10
2022,05,13,02,57,1.00
2022,05,13,02,58,1.00
2022,05,13,02,59,1.00
2022,05,13,03,00,0.90
2022,05,13,03,01,0.90
2022,05,13,03,02,0.90
2022,05,13,03,03,0.80
2022,05,13,03,04,0.80
2022,05,13,03,05,0.80
2022,05,13,03,06,0.80
2022,05,13,03,07,0.80
2022,05,13,03,08,0.80
2022,05,13,03,09,0.80
2022,05,13,03,10,0.80
2022,05,13,03,11,0.80
2022,05,13,03,12,0.80
2022,05,13,03,13,0.80
2022,05,13,03,14,0.80
2022,05,13,03,15,0.90
2022,05,13,03,16,0.90
2022,05,13,03,17,0.90
2022,05,13,03,18,1.00
2022,05,13,03,19,1.00
2022,05,13,03,20,0.90
2022,05,13,03,21,0.90
2022,05,13,03,22,0.90
2022,05,13,03,23,0.90
2022,05,13,03,24,1.00
2022,05,13,03,25,1.10
2022,05,13,03,26,1.10
2022,05,13,03,27,1.00
2022,05,13,03,28,0.90
2022,05,13,03,29,0.90
2022,05,13,03,30,0.80
2022,05,13,03,31,0.90
2022,05,13,03,32,0.90
2022,05,13,03,33,0.90
2022,05,13,03,34,0.90
2022,05,13,03,35,1.00
2022,05,13,03,36,1.00
2022,05,13,03,37,1.10
2022,05,13,03,38,1.20
2022,05,13,03,39,1.30
2022,05,13,03,40,1.50
2022,05,13,03,41,1.60
2022,05,13,03,42,1.70
2022,05,13,03,43,1.70
2022,05,13,03,44,1.70
2022,05,13,03,45,1.60
2022,05,13,03,46,1.60
2022,05,13,03,47,1.50
2022,05,13,03,48,1.40
2022,05,13,03,49,1.30
2022,05,13,03,50,1.30
2022,05,13,03,51,1.20
2022,05,13,03,52,1.10
2022,05,13,03,53,1.00
2022,05,13,03,54,0.90
2022,05,13,03,55,0.90
2022,05,13,03,56,0.80
2022,05,13,03,57,0.70
2022,05,13,03,58,0.70
2022,05,13,03,59,0.70
2022,05,13,04,00,0.70
2022,05,13,04,01,0.70
2022,05,13,04,02,0.70
2022,05,13,04,03,0.70
2022,05,13,04,04,0.70
2022,05,13,04,05,0.70
2022,05,13,04,06,0.70
2022,05,13,04,07,0.70
2022,05,13,04,08,0.60
2022,05,13,04,09,0.60
2022,05,13,04,10,0.60
2022,05,13,04,11,0.60
2022,05,13,04,12,0.60
2022,05,13,04,13,0.60
2022,05,13,04,14,0.70
2022,05,13,04,15,0.60
2022,05,13,04,16,0.60
2022,05,13,04,17,0.60
2022,05,13,04,18,0.60
2022,05,13,04,19,0.60
2022,05,13,04,20,0.60
2022,05,13,04,21,0.50
2022,05,13,04,22,0.60
2022,05,13,04,23,0.60
2022,05,13,04,24,0.60
2022,05,13,04,25,0.50
2022,05,13,04,26,0.50
2022,05,13,04,27,0.50
2022,05,13,04,28,0.50
2022,05,13,04,29,0.50
2022,05,13,04,30,0.50
2022,05,13,04,31,0.40
2022,05,13,04,32,0.40
2022,05,13,04,33,0.30
2022,05,13,04,34,0.30
2022,05,13,04,35,0.30
2022,05,13,04,36,0.30
2022,05,13,04,37,0.30
2022,05,13,04,38,0.30
2022,05,13,04,39,0.40
2022,05,13,04,40,0.50
2022,05,13,04,41,0.60
2022,05,13,04,42,0.70
2022,05,13,04,43,0.80
2022,05,13,04,44,0.80
2022,05,13,04,45,0.80
2022,05,13,04,46,0.90
2022,05,13,04,47,0.90
2022,05,13,04,48,0.80
2022,05,13,04,49,0.80
2022,05,13,04,50,0.70
2022,05,13,04,51,0.70
2022,05,13,04,52,0.60
2022,05,13,04,53,0.60
2022,05,13,04,54,0.60
2022,05,13,04,55,0.60
2022,05,13,04,56,0.60
2022,05,13,04,57,0.60
2022,05,13,04,58,0.60
2022,05,13,04,59,0.60
2022,05,13,05,00,0.50
2022,05,13,05,01,0.50
2022,05,13,05,02,0.40
2022,05,13,05,03,0.40
2022,05,13,05,04,0.30
2022,05,13,05,05,0.20
2022,05,13,05,06,0.20
2022,05,13,05,07,0.20
2022,05,13,05,08,0.10
2022,05,13,05,09,0.10
2022,05,13,05,10,0.10
2022,05,13,05,11,0.10
2022,05,13,05,12,0.10
2022,05,13,05,13,0.10
2022,05,13,05,14,0.10
2022,05,13,05,15,0.10
2022,05,13,05,16,0.10
2022,05,13,05,17,0.10
2022,05,13,05,18,0.10
2022,05,13,05,19,0.10
2022,05,13,05,20,0.10
2022,05,13,05,21,0.10
2022,05,13,05,22,0.10
2022,05,13,05,23,0.10
2022,05,13,05,24,0.10
2022,05,13,05,25,0.10
2022,05,13,05,26,0.20
2022,05,13,05,27,0.20
2022,05,13,05,28,0.30
2022,05,13,05,29,0.30
2022,05,13,05,30,0.30
2022,05,13,05,31,0.20
2022,05,13,05,32,0.20
2022,05,13,05,33,0.20
2022,05,13,05,34,0.20
2022,05,13,05,35,0.20
2022,05,13,05,36,0.20
2022,05,13,05,37,0.20
2022,05,13,05,38,0.30
2022,05,13,05,39,0.30
2022,05,13,05,40,0.40
2022,05,13,05,41,0.60
2022,05,13,05,42,0.80
2022,05,13,05,43,0.90
2022,05,13,05,44,1.00
2022,05,13,05,45,0.90
2022,05,13,05,46,0.80
2022,05,13,05,47,0.80
2022,05,13,05,48,0.70
2022,05,13,05,49,0.60
2022,05,13,05,50,0.60
2022,05,13,05,51,0.50
2022,05,13,05,52,0.50
2022,05,13,05,53,0.50
2022,05,13,05,54,0.50
2022,05,13,05,55,0.50
2022,05,13,05,56,0.50
2022,05,13,05,57,0.40
2022,05,13,05,58,0.40
2022,05,13,05,59,0.40
2022,05,13,06,00,0.40
2022,05,13,06,01,0.40
2022,05,13,06,02,0.40
2022,05,13,06,03,0.50
2022,05,13,06,04,0.50
2022,05,13,06,05,0.50
2022,05,13,06,06,0.40
2022,05,13,06,07,0.40
2022,05,13,06,08,0.40
2022,05,13,06,09,0.40
2022,05,13,06,10,0.40
2022,05,13,06,11,0.40
2022,05,13,06,12,0.40
2022,05,13,06,13,0.30
2022,05,13,06,14,0.30
2022,05,13,06,15,0.30
2022,05,13,06,16,0.40
2022,05,13,06,17,0.40
2022,05,13,06,18,0.40
2022,05,13,06,19,0.50
2022,05,13,06,20,0.50
2022,05,13,06,21,0.60
2022,05,13,06,22,0.60
2022,05,13,06,23,0.70
2022,05,13,06,24,0.70
2022,05,13,06,25,0.70
2022,05,13,06,26,0.70
2022,05,13,06,27,0.60
2022,05,13,06,28,0.60
2022,05,13,06,29,0.60
2022,05,13,06,30,0.60
2022,05,13,06,31,0.60
2022,05,13,06,32,0.70
2022,05,13,06,33,0.70
2022,05,13,06,34,0.80
2022,05,13,06,35,0.90
2022,05,13,06,36,1.00
2022,05,13,06,37,1.10
2022,05,13,06,38,1.20
2022,05,13,06,39,1.30
2022,05,13,06,40,1.40
2022,05,13,06,41,1.40
2022,05,13,06,42,1.40
2022,05,13,06,43,1.40
2022,05,13,06,44,1.40
2022,05,13,06,45,1.40
2022,05,13,06,46,1.40
2022,05,13,06,47,1.40
2022,05,13,06,48,1.40
2022,05,13,06,49,1.50
2022,05,13,06,50,1.50
2022,05,13,06,51,1.60
2022,05,13,06,52,1.60
2022,05,13,06,53,1.60
2022,05,13,06,54,1.70
2022,05,13,06,55,1.70
2022,05,13,06,56,1.80
2022,05,13,06,57,1.80
2022,05,13,06,58,1.90
2022,05,13,06,59,2.00
2022,05,13,07,00,2.00
2022,05,13,07,01,2.00
2022,05,13,07,02,2.10
2022,05,13,07,03,2.10
2022,05,13,07,04,2.20
2022,05,13,07,05,2.30
2022,05,13,07,06,2.40
2022,05,13,07,07,2.50
2022,05,13,07,08,2.50
2022,05,13,07,09,2.60
2022,05,13,07,10,2.70
2022,05,13,07,11,2.70
2022,05,13,07,12,2.70
2022,05,13,07,13,2.60
2022,05,13,07,14,2.60
2022,05,13,07,15,2.70
2022,05,13,07,16,2.70
2022,05,13,07,17,2.80
2022,05,13,07,18,2.80
2022,05,13,07,19,2.90
2022,05,13,07,20,3.00
2022,05,13,07,21,3.10
2022,05,13,07,22,3.10
2022,05,13,07,23,3.10
2022,05,13,07,24,3.20
2022,05,13,07,25,3.20
2022,05,13,07,26,3.20
2022,05,13,07,27,3.20
2022,05,13,07,28,3.30
2022,05,13,07,29,3.30
2022,05,13,07,30,3.30
2022,05,13,07,31,3.40
2022,05,13,07,32,3.40
2022,05,13,07,33,3.50
2022,05,13,07,34,3.50
2022,05,13,07,35,3.60
2022,05,13,07,36,3.60
2022,05,13,07,37,3.60
2022,05,13,07,38,3.70
2022,05,13,07,39,3.70
2022,05,13,07,40,3.80
2022,05,13,07,41,3.80
2022,05,13,07,42,3.80
2022,05,13,07,43,3.90
2022,05,13,07,44,4.00
2022,05,13,07,45,4.10
2022,05,13,07,46,4.20
2022,05,13,07,47,4.20
2022,05,13,07,48,4.30
2022,05,13,07,49,4.30
2022,05,13,07,50,4.40
2022,05,13,07,51,4.40
2022,05,13,07,52,4.50
2022,05,13,07,53,4.50
2022,05,13,07,54,4.50
2022,05,13,07,55,4.50
2022,05,13,07,56,4.50
2022,05,13,07,57,4.50
2022,05,13,07,58,4.50
2022,05,13,07,59,4.60
2022,05,13,08,00,4.50
2022,05,13,08,01,4.60
2022,05,13,08,02,4.60
2022,05,13,08,03,4.70
2022,05,13,08,04,4.80
2022,05,13,08,05,4.80
2022,05,13,08,06,4.90
2022,05,13,08,07,5.00
2022,05,13,08,08,5.10
2022,05,13,08,09,5.10
2022,05,13,08,10,5.20
2022,05,13,08,11,5.20
2022,05,13,08,12,5.30
2022,05,13,08,13,5.30
2022,05,13,08,14,5.30
2022,05,13,08,15,5.30
2022,05,13,08,16,5.40
2022,05,13,08,17,5.50
2022,05,13,08,18,5.60
2022,05,13,08,19,5.60
2022,05,13,08,20,5.70
2022,05,13,08,21,5.70
2022,05,13,08,22,5.80
2022,05,13,08,23,5.80
2022,05,13,08,24,5.90
2022,05,13,08,25,5.90
2022,05,13,08,26,6.00
2022,05,13,08,27,6.10
2022,05,13,08,28,6.10
2022,05,13,08,29,6.20
2022,05,13,08,30,6.30
2022,05,13,08,31,6.30
2022,05,13,08,32,6.40
2022,05,13,08,33,6.50
2022,05,13,08,34,6.60
2022,05,13,08,35,6.70
2022,05,13,08,36,6.70
2022,05,13,08,37,6.80
2022,05,13,08,38,6.80
2022,05,13,08,39,6.70
2022,05,13,08,40,6.70
2022,05,13,08,41,6.70
2022,05,13,08,42,6.70
2022,05,13,08,43,6.70
2022,05,13,08,44,6.70
2022,05,13,08,45,6.70
2022,05,13,08,46,6.70
2022,05,13,08,47,6.70
2022,05,13,08,48,6.80
2022,05,13,08,49,6.80
2022,05,13,08,50,6.80
2022,05,13,08,51,6.80
2022,05,13,08,52,6.90
2022,05,13,08,53,6.90
2022,05,13,08,54,6.90
2022,05,13,08,55,6.90
2022,05,13,08,56,6.90
2022,05,13,08,57,6.90
2022,05,13,08,58,6.90
2022,05,13,08,59,6.90
2022,05,13,09,00,6.90
2022,05,13,09,01,6.90
2022,05,13,09,02,6.90
2022,05,13,09,03,6.90
2022,05,13,09,04,7.00
2022,05,13,09,05,7.00
2022,05,13,09,06,7.10
2022,05,13,09,07,7.10
2022,05,13,09,08,7.20
2022,05,13,09,09,7.30
2022,05,13,09,10,7.30
2022,05,13,09,11,7.40
2022,05,13,09,12,7.50
2022,05,13,09,13,7.50
2022,05,13,09,14,7.50
2022,05,13,09,15,7.50
2022,05,13,09,16,7.60
2022,05,13,09,17,7.60
2022,05,13,09,18,7.50
2022,05,13,09,19,7.50
2022,05,13,09,20,7.50
2022,05,13,09,21,7.40
2022,05,13,09,22,7.30
2022,05,13,09,23,7.30
2022,05,13,09,24,7.20
2022,05,13,09,25,7.20
2022,05,13,09,26,7.20
2022,05,13,09,27,7.20
2022,05,13,09,28,7.20
2022,05,13,09,29,7.10
2022,05,13,09,30,7.20
2022,05,13,09,31,7.20
2022,05,13,09,32,7.30
2022,05,13,09,33,7.30
2022,05,13,09,34,7.30
2022,05,13,09,35,7.30
2022,05,13,09,36,7.30
2022,05,13,09,37,7.30
2022,05,13,09,38,7.30
2022,05,13,09,39,7.30
2022,05,13,09,40,7.30
2022,05,13,09,41,7.30
2022,05,13,09,42,7.30
2022,05,13,09,43,7.30
2022,05,13,09,44,7.30
2022,05,13,09,45,7.30
2022,05,13,09,46,7.20
2022,05,13,09,47,7.30
2022,05,13,09,48,7.30
2022,05,13,09,49,7.30
2022,05,13,09,50,7.30
2022,05,13,09,51,7.30
2022,05,13,09,52,7.30
2022,05,13,09,53,7.40
2022,05,13,09,54,7.40
2022,05,13,09,55,7.30
2022,05,13,09,56,7.30
2022,05,13,09,57,7.30
2022,05,13,09,58,7.30
2022,05,13,09,59,7.20
2022,05,13,10,00,7.20
2022,05,13,10,01,7.20
2022,05,13,10,02,7.10
2022,05,13,10,03,7.20
2022,05,13,10,04,7.20
2022,05,13,10,05,7.20
2022,05,13,10,06,7.30
2022,05,13,10,07,7.30
2022,05,13,10,08,7.30
2022,05,13,10,09,7.30
2022,05,13,10,10,7.30
2022,05,13,10,11,7.30
2022,05,13,10,12,7.30
2022,05,13,10,13,7.30
2022,05,13,10,14,7.40
2022,05,13,10,15,7.50
2022,05,13,10,16,7.60
2022,05,13,10,17,7.60
2022,05,13,10,18,7.70
2022,05,13,10,19,7.70
2022,05,13,10,20,7.70
2022,05,13,10,21,7.80
2022,05,13,10,22,7.80
2022,05,13,10,23,7.90
2022,05,13,10,24,8.00
2022,05,13,10,25,8.10
2022,05,13,10,26,8.10
2022,05,13,10,27,8.10
2022,05,13,10,28,8.10
2022,05,13,10,29,8.10
2022,05,13,10,30,8.10
2022,05,13,10,31,8.10
2022,05,13,10,32,8.00
2022,05,13,10,33,8.00
2022,05,13,10,34,8.10
2022,05,13,10,35,8.10
2022,05,13,10,36,8.20
2022,05,13,10,37,8.20
2022,05,13,10,38,8.20
2022,05,13,10,39,8.20
2022,05,13,10,40,8.20
2022,05,13,10,41,8.20
2022,05,13,10,42,8.20
2022,05,13,10,43,8.20
2022,05,13,10,44,8.10
2022,05,13,10,45,8.10
2022,05,13,10,46,8.00
2022,05,13,10,47,8.00
2022,05,13,10,48,8.00
2022,05,13,10,49,8.00
2022,05,13,10,50,8.00
2022,05,13,10,51,8.00
2022,05,13,10,52,8.00
2022,05,13,10,53,8.10
2022,05,13,10,54,8.10
2022,05,13,10,55,8.10
2022,05,13,10,56,8.10
2022,05,13,10,57,8.10
2022,05,13,10,58,8.00
2022,05,13,10,59,8.00
2022,05,13,11,00,8.00
2022,05,13,11,01,8.00
2022,05,13,11,02,8.00
2022,05,13,11,03,7.90
2022,05,13,11,04,7.90
2022,05,13,11,05,7.80
2022,05,13,11,06,7.80
2022,05,13,11,07,7.80
2022,05,13,11,08,7.80
2022,05,13,11,09,7.70
2022,05,13,11,10,7.70
2022,05,13,11,11,7.70
2022,05,13,11,12,7.70
2022,05,13,11,13,7.70
2022,05,13,11,14,7.70
2022,05,13,11,15,7.70
2022,05,13,11,16,7.70
2022,05,13,11,17,7.70
2022,05,13,11,18,7.70
2022,05,13,11,19,7.70
2022,05,13,11,20,7.70
2022,05,13,11,21,7.80
2022,05,13,11,22,7.80
2022,05,13,11,23,7.80
2022,05,13,11,24,7.80
2022,05,13,11,25,7.80
2022,05,13,11,26,7.90
2022,05,13,11,27,7.90
2022,05,13,11,28,7.90
2022,05,13,11,29,7.90
2022,05,13,11,30,7.90
2022,05,13,11,31,7.90
2022,05,13,11,32,7.90
2022,05,13,11,33,7.90
2022,05,13,11,34,7.90
2022,05,13,11,35,7.80
2022,05,13,11,36,7.80
2022,05,13,11,37,7.80
2022,05,13,11,38,7.80
2022,05,13,11,39,7.80
2022,05,13,11,40,7.80
2022,05,13,11,41,7.80
2022,05,13,11,42,7.80
2022,05,13,11,43,7.80
2022,05,13,11,44,7.80
2022,05,13,11,45,7.90
2022,05,13,11,46,7.90
2022,05,13,11,47,8.00
2022,05,13,11,48,8.00
2022,05,13,11,49,8.10
2022,05,13,11,50,8.10
2022,05,13,11,51,8.20
2022,05,13,11,52,8.20
2022,05,13,11,53,8.30
2022,05,13,11,54,8.30
2022,05,13,11,55,8.30
2022,05,13,11,56,8.30
2022,05,13,11,57,8.40
2022,05,13,11,58,8.40
2022,05,13,11,59,8.50
2022,05,13,12,00,8.40
2022,05,13,12,01,8.50
2022,05,13,12,02,8.40
2022,05,13,12,03,8.40
2022,05,13,12,04,8.40
2022,05,13,12,05,8.40
2022,05,13,12,06,8.40
2022,05,13,12,07,8.40
2022,05,13,12,08,8.30
2022,05,13,12,09,8.20
2022,05,13,12,10,8.10
2022,05,13,12,11,8.10
2022,05,13,12,12,8.00
2022,05,13,12,13,8.00
2022,05,13,12,14,7.90
2022,05,13,12,15,7.80
2022,05,13,12,16,7.70
2022,05,13,12,17,7.70
2022,05,13,12,18,7.70
2022,05,13,12,19,7.70
2022,05,13,12,20,7.60
2022,05,13,12,21,7.70
2022,05,13,12,22,7.70
2022,05,13,12,23,7.70
2022,05,13,12,24,7.70
2022,05,13,12,25,7.60
2022,05,13,12,26,7.60
2022,05,13,12,27,7.60
2022,05,13,12,28,7.60
2022,05,13,12,29,7.70
2022,05,13,12,30,7.70
2022,05,13,12,31,7.80
2022,05,13,12,32,7.90
2022,05,13,12,33,8.00
2022,05,13,12,34,8.20
2022,05,13,12,35,8.30
2022,05,13,12,36,8.40
2022,05,13,12,37,8.50
2022,05,13,12,38,8.50
2022,05,13,12,39,8.60
2022,05,13,12,40,8.50
2022,05,13,12,41,8.50
2022,05,13,12,42,8.40
2022,05,13,12,43,8.40
2022,05,13,12,44,8.40
2022,05,13,12,45,8.30
2022,05,13,12,46,8.30
2022,05,13,12,47,8.30
2022,05,13,12,48,8.30
2022,05,13,12,49,8.30
2022,05,13,12,50,8.30
2022,05,13,12,51,8.30
2022,05,13,12,52,8.40
2022,05,13,12,53,8.50
2022,05,13,12,54,8.60
2022,05,13,12,55,8.70
2022,05,13,12,56,8.70
2022,05,13,12,57,8.70
2022,05,13,12,58,8.90
2022,05,13,12,59,9.00
2022,05,13,13,00,9.10
2022,05,13,13,01,9.20
2022,05,13,13,02,9.20
2022,05,13,13,03,9.30
2022,05,13,13,04,9.20
2022,05,13,13,05,9.30
2022,05,13,13,06,9.30
2022,05,13,13,07,9.30
2022,05,13,13,08,9.40
2022,05,13,13,09,9.30
2022,05,13,13,10,9.30
2022,05,13,13,11,9.20
2022,05,13,13,12,9.30
2022,05,13,13,13,9.30
2022,05,13,13,14,9.30
2022,05,13,13,15,9.20
2022,05,13,13,16,9.20
2022,05,13,13,17,9.30
2022,05,13,13,18,9.30
2022,05,13,13,19,9.40
2022,05,13,13,20,9.50
2022,05,13,13,21,9.60
2022,05,13,13,22,9.60
2022,05,13,13,23,9.50
2022,05,13,13,24,9.50
2022,05,13,13,25,9.40
2022,05,13,13,26,9.40
2022,05,13,13,27,9.40
2022,05,13,13,28,9.30
2022,05,13,13,29,9.30
2022,05,13,13,30,9.30
2022,05,13,13,31,9.30
2022,05,13,13,32,9.30
2022,05,13,13,33,9.30
2022,05,13,13,34,9.30
2022,05,13,13,35,9.20
2022,05,13,13,36,9.10
2022,05,13,13,37,9.10
2022,05,13,13,38,9.10
2022,05,13,13,39,9.20
2022,05,13,13,40,9.20
2022,05,13,13,41,9.30
2022,05,13,13,42,9.40
2022,05,13,13,43,9.30
2022,05,13,13,44,9.40
2022,05,13,13,45,9.50
2022,05,13,13,46,9.50
2022,05,13,13,47,9.60
2022,05,13,13,48,9.70
2022,05,13,13,49,9.70
2022,05,13,13,50,9.70
2022,05,13,13,51,9.70
2022,05,13,13,52,9.70
2022,05,13,13,53,9.70
2022,05,13,13,54,9.60
2022,05,13,13,55,9.60
2022,05,13,13,56,9.60
2022,05,13,13,57,9.60
2022,05,13,13,58,9.60
2022,05,13,13,59,9.60
2022,05,13,14,00,9.60
2022,05,13,14,01,9.70
2022,05,13,14,02,9.70
2022,05,13,14,03,9.70
2022,05,13,14,04,9.60
2022,05,13,14,05,9.60
2022,05,13,14,06,9.60
2022,05,13,14,07,9.60
2022,05,13,14,08,9.60
2022,05,13,14,09,9.70
2022,05,13,14,10,9.70
2022,05,13,14,11,9.70
2022,05,13,14,12,9.60
2022,05,13,14,13,9.70
2022,05,13,14,14,9.70
2022,05,13,14,15,9.60
2022,05,13,14,16,9.50
2022,05,13,14,17,9.50
2022,05,13,14,18,9.50
2022,05,13,14,19,9.50
2022,05,13,14,20,9.50
2022,05,13,14,21,9.50
2022,05,13,14,22,9.50
2022,05,13,14,23,9.50
2022,05,13,14,24,9.50
2022,05,13,14,25,9.50
2022,05,13,14,26,9.40
2022,05,13,14,27,9.40
2022,05,13,14,28,9.30
2022,05,13,14,29,9.20
2022,05,13,14,30,9.20
2022,05,13,14,31,9.20
2022,05,13,14,32,9.30
2022,05,13,14,33,9.30
2022,05,13,14,34,9.40
2022,05,13,14,35,9.30
2022,05,13,14,36,9.30
2022,05,13,14,37,9.30
2022,05,13,14,38,9.30
2022,05,13,14,39,9.30
2022,05,13,14,40,9.40
2022,05,13,14,41,9.40
2022,05,13,14,42,9.40
2022,05,13,14,43,9.40
2022,05,13,14,44,9.30
2022,05,13,14,45,9.30
2022,05,13,14,46,9.20
2022,05,13,14,47,9.20
2022,05,13,14,48,9.20
2022,05,13,14,49,9.20
2022,05,13,14,50,9.20
2022,05,13,14,51,9.20
2022,05,13,14,52,9.20
2022,05,13,14,53,9.40
2022,05,13,14,54,9.40
2022,05,13,14,55,9.60
2022,05,13,14,56,9.60
2022,05,13,14,57,9.70
2022,05,13,14,58,9.80
2022,05,13,14,59,9.80
2022,05,13,15,00,9.70
2022,05,13,15,01,9.70
2022,05,13,15,02,9.70
2022,05,13,15,03,9.70
2022,05,13,15,04,9.70
2022,05,13,15,05,9.70
2022,05,13,15,06,9.70
2022,05,13,15,07,9.70
2022,05,13,15,08,9.80
2022,05,13,15,09,9.80
2022,05,13,15,10,9.90
2022,05,13,15,11,9.90
2022,05,13,15,12,10.00
2022,05,13,15,13,10.00
2022,05,13,15,14,10.00
2022,05,13,15,15,9.90
2022,05,13,15,16,9.90
2022,05,13,15,17,9.80
2022,05,13,15,18,9.80
2022,05,13,15,19,9.80
2022,05,13,15,20,9.80
2022,05,13,15,21,9.80
2022,05,13,15,22,9.80
2022,05,13,15,23,9.80
2022,05,13,15,24,9.90
2022,05,13,15,25,9.90
2022,05,13,15,26,10.00
2022,05,13,15,27,10.00
2022,05,13,15,28,10.10
2022,05,13,15,29,10.20
2022,05,13,15,30,10.20
2022,05,13,15,31,10.20
2022,05,13,15,32,10.20
2022,05,13,15,33,10.10
2022,05,13,15,34,10.00
2022,05,13,15,35,10.00
2022,05,13,15,36,10.00
2022,05,13,15,37,10.00
2022,05,13,15,38,10.00
2022,05,13,15,39,9.90
2022,05,13,15,40,9.90
2022,05,13,15,41,10.00
2022,05,13,15,42,10.00
2022,05,13,15,43,9.90
2022,05,13,15,44,9.90
2022,05,13,15,45,9.80
2022,05,13,15,46,9.70
2022,05,13,15,47,9.70
2022,05,13,15,48,9.80
2022,05,13,15,49,9.80
2022,05,13,15,50,9.80
2022,05,13,15,51,9.80
2022,05,13,15,52,9.80
2022,05,13,15,53,9.80
2022,05,13,15,54,9.80
2022,05,13,15,55,9.80
2022,05,13,15,56,9.90
2022,05,13,15,57,9.90
2022,05,13,15,58,10.00
2022,05,13,15,59,10.00
2022,05,13,16,00,10.10
2022,05,13,16,01,10.10
2022,05,13,16,02,10.20
2022,05,13,16,03,10.20
2022,05,13,16,04,10.20
2022,05,13,16,05,10.20
2022,05,13,16,06,10.20
2022,05,13,16,07,10.20
2022,05,13,16,08,10.20
2022,05,13,16,09,10.20
2022,05,13,16,10,10.20
2022,05,13,16,11,10.10
2022,05,13,16,12,10.10
2022,05,13,16,13,10.10
2022,05,13,16,14,10.10
2022,05,13,16,15,10.00
2022,05,13,16,16,10.00
2022,05,13,16,17,9.90
2022,05,13,16,18,9.90
2022,05,13,16,19,9.80
2022,05,13,16,20,9.80
2022,05,13,16,21,9.90
2022,05,13,16,22,9.90
2022,05,13,16,23,9.90
2022,05,13,16,24,9.90
2022,05,13,16,25,9.90
2022,05,13,16,26,9.90
2022,05,13,16,27,9.90
2022,05,13,16,28,9.90
2022,05,13,16,29,9.90
2022,05,13,16,30,9.90
2022,05,13,16,31,9.90
2022,05,13,16,32,9.90
2022,05,13,16,33,10.00
2022,05,13,16,34,9.90
2022,05,13,16,35,9.90
2022,05,13,16,36,10.00
2022,05,13,16,37,10.00
2022,05,13,16,38,10.00
2022,05,13,16,39,10.00
2022,05,13,16,40,9.90
2022,05,13,16,41,9.90
2022,05,13,16,42,9.80
2022,05,13,16,43,9.80
2022,05,13,16,44,9.80
2022,05,13,16,45,9.80
2022,05,13,16,46,9.80
2022,05,13,16,47,9.70
2022,05,13,16,48,9.70
2022,05,13,16,49,9.70
2022,05,13,16,50,9.70
2022,05,13,16,51,9.70
2022,05,13,16,52,9.70
2022,05,13,16,53,9.70
2022,05,13,16,54,9.70
2022,05,13,16,55,9.70
2022,05,13,16,56,9.70
2022,05,13,16,57,9.70
2022,05,13,16,58,9.60
2022,05,13,16,59,9.60
2022,05,13,17,00,9.60
2022,05,13,17,01,9.60
2022,05,13,17,02,9.60
2022,05,13,17,03,9.60
2022,05,13,17,04,9.60
2022,05,13,17,05,9.60
2022,05,13,17,06,9.50
2022,05,13,17,07,9.40
2022,05,13,17,08,9.40
2022,05,13,17,09,9.30
2022,05,13,17,10,9.30
2022,05,13,17,11,9.30
2022,05,13,17,12,9.40
2022,05,13,17,13,9.30
2022,05,13,17,14,9.30
2022,05,13,17,15,9.30
2022,05,13,17,16,9.30
2022,05,13,17,17,9.30
2022,05,13,17,18,9.40
2022,05,13,17,19,9.40
2022,05,13,17,20,9.40
2022,05,13,17,21,9.50
2022,05,13,17,22,9.50
2022,05,13,17,23,9.50
2022,05,13,17,24,9.40
2022,05,13,17,25,9.40
2022,05,13,17,26,9.40
2022,05,13,17,27,9.40
2022,05,13,17,28,9.40
2022,05,13,17,29,9.40
2022,05,13,17,30,9.40
2022,05,13,17,31,9.40
2022,05,13,17,32,9.50
2022,05,13,17,33,9.50
2022,05,13,17,34,9.60
2022,05,13,17,35,9.60
2022,05,13,17,36,9.60
2022,05,13,17,37,9.60
2022,05,13,17,38,9.60
2022,05,13,17,39,9.60
2022,05,13,17,40,9.50
2022,05,13,17,41,9.50
2022,05,13,17,42,9.50
2022,05,13,17,43,9.40
2022,05,13,17,44,9.40
2022,05,13,17,45,9.40
2022,05,13,17,46,9.30
2022,05,13,17,47,9.30
2022,05,13,17,48,9.20
2022,05,13,17,49,9.20
2022,05,13,17,50,9.10
2022,05,13,17,51,9.10
2022,05,13,17,52,9.10
2022,05,13,17,53,9.10
2022,05,13,17,54,9.10
2022,05,13,17,55,9.10
2022,05,13,17,56,9.10
2022,05,13,17,57,9.20
2022,05,13,17,58,9.10
2022,05,13,17,59,9.10
2022,05,13,18,00,9.10
2022,05,13,18,01,9.10
2022,05,13,18,02,9.10
2022,05,13,18,03,9.10
2022,05,13,18,04,9.10